Location: Chagrin Falls Park
(41.4139°N, 81.3865°W)
Time: 23:21:08
(UTC+00:00)

STARLINK-2651 - Pass Details

Date: 31 July 2021
Orbit: 546 x 548 km, 53.1° (Epoch: 20 September)

Event Time Altitude Azimuth Distance (km) Brightness Sun altitude
Rises 03:14:22 0° 292° (WNW) 2,718 8.1 -22.4°
Reaches altitude 10° 03:17:27 10° 267° (W) 1,819 6.6 -22.7°
Enters shadow 03:19:42 14° 234° (SW) 1,552 5.9 -23.0°
